Address 0x4a4bd3346418a0752983d585dfa81384483bbabf 10

Txn Hash
Method
Block
From
To
Value [Txn Fee]
0x0f27174106a5a6b1f7e10703b962d4f3be30bbbdfb7cdb54a5e62228b35e04d9Mint289046502022-10-31 9:26:5597 days 15 hrs ago0x4a4bd3346418a0752983d585dfa81384483bbabfOUT 0x8e45752bb602b47169a23a0322c27865f434a9640 MATIC0.000281148001 1.500000009
0xbd2518d3a2020fa23e9ded9af8629ea0207a620f4d367d65142f082d868f556fCreate Badge289033362022-10-31 7:37:0497 days 17 hrs ago0x4a4bd3346418a0752983d585dfa81384483bbabfOUT 0x8e45752bb602b47169a23a0322c27865f434a9640 MATIC0.00013347 1.50000001
0x22cf93eac620978f5fdc1d0cfe74319ff61988828998f51fbd1c1a95908d976dCreate Badge289029312022-10-31 7:03:1397 days 17 hrs ago0x4a4bd3346418a0752983d585dfa81384483bbabfOUT 0x8e45752bb602b47169a23a0322c27865f434a9640 MATIC0.000133488 1.500000011
0x29c450ee368549061385d9a9f8852020bf40f3e3491609d128c4662a135b3a47Create Badge288957782022-10-30 21:05:1698 days 3 hrs ago0x4a4bd3346418a0752983d585dfa81384483bbabfOUT 0x8e45752bb602b47169a23a0322c27865f434a9640 MATIC0.000133164 1.500000008
0xdb4e7a963c05f1dc2f59bbe1b24865b7c4b0103624c26c8fc4f0104b60f0c9e9Transfer288248402022-10-26 18:11:32102 days 6 hrs ago0x4a4bd3346418a0752983d585dfa81384483bbabfOUT0x101279684963fea4656b93ba3bcdcd65439cf3324 MATIC0.000050925 2.425000018
0xdb0fbe887eddafcdfac65334f2aa6f311d51bd187e9d3ea25a3d22d7eb46dcabTransfer288248232022-10-26 18:10:06102 days 6 hrs ago0xd8a3dfcae8348e6c52b929c8e50217ad7e4cca68 IN 0x4a4bd3346418a0752983d585dfa81384483bbabf5 MATIC0.00073535
0xc5acfb5e18e60fa9f2b8b19966fa066100531a96525c0c149a1aca2f412f50110xfc05b2e8285288822022-10-09 13:41:46119 days 10 hrs ago0x4a4bd3346418a0752983d585dfa81384483bbabfOUT 0x4d63061cf9d4fab1a397a7a35c07bfed455c14fd0 MATIC0.001240541406 18.020909749
0x022303c8417b8d811c32cafa19e23c8176b4442de4e69cc870e6b2dbd062bff4Upgrade284635572022-10-05 18:40:55123 days 5 hrs ago0x4a4bd3346418a0752983d585dfa81384483bbabfOUT 0x6a1bc74eb7543be193373d216408582c609176320 MATIC0.000097035 2.500000016
0xe9ac005f9efb61d18f28f3cc2104a91e1973ee3cd7ca77a26dba2472b8ae64bc0x60806040284635542022-10-05 18:40:40123 days 5 hrs ago0x4a4bd3346418a0752983d585dfa81384483bbabfOUT Contract Creation0 MATIC0.006467567543 2.500000017
0x6dc87dbda9df3cd781e78f3bff73e5d82f392c459e70c6005a819dbb05cf363bMint257747372022-04-02 20:57:25309 days 3 hrs ago0x4a4bd3346418a0752983d585dfa81384483bbabfOUT 0x8e45752bb602b47169a23a0322c27865f434a9640 MATIC0.000417873481 2.500035788
0x6c7d76eb38b81436ff7e9939e6d5438ab28f66697038cf64073b2f58a115910fCreate Badge257746462022-04-02 20:47:33309 days 3 hrs ago0x4a4bd3346418a0752983d585dfa81384483bbabfOUT 0x8e45752bb602b47169a23a0322c27865f434a9640 MATIC0.000222330086 2.500000973
0x592afa449e17f4bd9cf7b13820ca71fbcac01b4cf826ddd5ff64883246bdd225Grant Role256424692022-03-24 4:33:48318 days 20 hrs ago0x4a4bd3346418a0752983d585dfa81384483bbabfOUT 0x8e45752bb602b47169a23a0322c27865f434a9640 MATIC0.000499098023 8.50006
0x22e8f86bea66588b30a3908d0147baa6047e7a5a99a712db0992379cf563c69cCreate Badge256424642022-03-24 4:33:23318 days 20 hrs ago0x4a4bd3346418a0752983d585dfa81384483bbabfOUT 0x8e45752bb602b47169a23a0322c27865f434a9640 MATIC0.00089052 10
0xb2dcfa167fc9dc5ef1d0914ac50c9d5fd6b12098d1605b640e7e082691774980Grant Role256420132022-03-24 3:55:41318 days 20 hrs ago0x4a4bd3346418a0752983d585dfa81384483bbabfOUT 0x8e45752bb602b47169a23a0322c27865f434a9640 MATIC0.00058717 10
0x30c0327e9bf5aadbcf37f9aaad7b9fe8442675345ad6a20367b7bcbc7feac9b8Create Badge256419892022-03-24 3:53:41318 days 20 hrs ago0x4a4bd3346418a0752983d585dfa81384483bbabfOUT 0x8e45752bb602b47169a23a0322c27865f434a9640 MATIC0.00088956 10
0x96b852ea4e70dffdbf9e0a6ac008aa730c74591f30a6954449c577133c8b45d6Grant Role256389982022-03-23 23:16:59319 days 1 hr ago0x4a4bd3346418a0752983d585dfa81384483bbabfOUT 0x8e45752bb602b47169a23a0322c27865f434a9640 MATIC0.0001467925 2.50000001
0x6d834975b848b365acf890af4fb030310b161c4b3efc5675cb8e1c7245b0fe22Grant Role256389942022-03-23 23:16:39319 days 1 hr ago0x4a4bd3346418a0752983d585dfa81384483bbabfOUT 0x8e45752bb602b47169a23a0322c27865f434a9640 MATIC0.00072954 20
0x8867868235e0053f072a68a09b5e690002e48fc909cc9b0ddcf55732abb10427Grant Role256252902022-03-22 23:07:05320 days 1 hr ago0x4a4bd3346418a0752983d585dfa81384483bbabfOUT 0x8e45752bb602b47169a23a0322c27865f434a9640 MATIC0.00116666 20
0x01d601adac0d3738ec3b8f584e1118a53d1518980846772325ab26ae8b30a090Grant Role253960722022-03-06 2:04:21336 days 22 hrs ago0x4a4bd3346418a0752983d585dfa81384483bbabfOUT 0x8e45752bb602b47169a23a0322c27865f434a9640 MATIC0.00058717 10
0xfd7502d84bde14fcbaab08fca39972d853f174bc7ac32fd42d5f29740ff1bf31Mint253960552022-03-06 2:02:56336 days 22 hrs ago0x4a4bd3346418a0752983d585dfa81384483bbabfOUT 0x8e45752bb602b47169a23a0322c27865f434a9640 MATIC0.00167147 10
0x763f10af7cc027bad1916b969ef6db01f70388985094d4937f7bd0cdd176f86fGrant Role253819032022-03-05 1:58:35337 days 22 hrs ago0x4a4bd3346418a0752983d585dfa81384483bbabfOUT 0x8e45752bb602b47169a23a0322c27865f434a9640 MATIC0.00036477 10
0x7c06a876d76165a519545edb33d2d9b70f279ec33f2f691ac81099a0bc99ed67Grant Role253818992022-03-05 1:58:15337 days 22 hrs ago0x4a4bd3346418a0752983d585dfa81384483bbabfOUT 0x8e45752bb602b47169a23a0322c27865f434a9640 MATIC0.00058717 10
0x1dff30e59a87e36d822f17abeb0aeb37068e09e35d14b9d75a1584ebf1adc743Grant Role253818942022-03-05 1:57:50337 days 22 hrs ago0x4a4bd3346418a0752983d585dfa81384483bbabfOUT 0x8e45752bb602b47169a23a0322c27865f434a9640 MATIC0.00058333 10
0xdda2a4f840e8491ffc0731c0a8251d467d906233945760ae4b5da4c80df49e58Mint253817392022-03-05 1:39:32337 days 22 hrs ago0x4a4bd3346418a0752983d585dfa81384483bbabfOUT 0x8e45752bb602b47169a23a0322c27865f434a9640 MATIC0.000417867501 2.500000011
0x0bc95f24c0fdbb5e02d2e03a2a295f431b4b6266c149bfa22aeb5cbe58787f09Mint253817112022-03-05 1:37:12337 days 23 hrs ago0x4a4bd3346418a0752983d585dfa81384483bbabfOUT 0x8e45752bb602b47169a23a0322c27865f434a9640 MATIC0.000417867501 2.500000011
[ Download CSV Export 
Latest 1 internal transaction
Parent Txn Hash Block From To Value
0x59e364a9a1b469ddab2f232e430be79ac5102abaef9f1823a1afa40d934438cd243263182022-01-27 21:00:05374 days 3 hrs ago 0x7f092e65c688a509737fcd8d0998dd12208f52970x4a4bd3346418a0752983d585dfa81384483bbabf0.5 MATIC
[ Download CSV Export 
Loading

Contract Name:
0 MATIC

Compiler Version
0

Optimization Enabled:
0 MATIC

Other Settings:
-NA-
Block Transaction Gas Used Reward
Age Block Fee Address BC Fee Address Voting Power Jailed Incoming
Block Uncle Number Difficulty Gas Used Reward
Loading